Location: Powder Track
(41.8531°N, 72.3584°W)
Time: 09:26:38
(UTC+00:00)

Transit 4A - Pass Details

Date: 04 August 2021
Orbit: 871 x 974 km, 66.8° (Epoch: 20 September)

Event Time Altitude Azimuth Distance (km) Brightness Sun altitude
Rises 11:22:20 0° 337° (NNW) 3,473 10.8 16.2°
Reaches altitude 10° 11:25:21 10° 352° (N) 2,540 10.3 16.8°
Maximum altitude 11:30:00 24° 44° (NE) 1,776 10.4 17.6°
Drops below altitude 10° 11:34:41 10° 97° (E) 2,573 12.2 18.5°
Sets 11:37:44 0° 111° (ESE) 3,529 12.0 19.1°
